RH
60 63 56 53 54 60 65 53 66 43 54 41 54 50 46 43 42 42 45 44 43 46 51 49 43 39 32 28 26 28 31 34 36 37 42 47 53 53 55 57 49 48 49 47
73 66 64 61 54 60 56 57 63 52 49 50 53 50 48 45 49 54 51 50 49 49 52 52 46 38 30 31 31 33 36 37 40 45 50 56 67 62 64 64 53 53 48 46
69 72 71 79 47 58 57 55 58 62 43 58 53 47 47 52 55 56 57 55 54 55 54 51 40 34 37 36 37 38 41 45 49 52 56 56 55 56 59 49 47 46 45 43
90 93 96 50 51 56 58 48 48 48 44 52 60 53 51 59 62 61 60 63 61 57 52 45 41 41 40 39 38 43 46 47 50 51 51 51 49 48 44 40 39 45 50 48
99 97 75 58 48 49 53 48 49 47 45 53 60 62 58 62 61 63 70 68 64 58 51 50 47 41 38 38 41 43 47 47 50 52 52 49 43 40 40 39 41 44 49 51
94 95 86 47 53 51 55 58 44 47 49 58 64 66 60 62 74 76 72 64 59 58 55 51 47 47 45 46 46 47 47 46 45 45 44 44 43 45 44 43 44 47 51 54
97 96 80 64 57 61 68 53 52 54 55 57 62 63 66 65 68 66 65 63 59 57 54 55 53 48 48 50 50 50 52 52 53 53 51 52 50 49 54 50 53 57 56 56
94 98 93 62 62 59 57 64 68 61 54 59 65 61 60 62 62 61 60 59 60 62 59 57 53 53 52 49 50 52 52 52 54 57 57 61 61 62 62 59 59 56 57 61
73 71 66 61 60 63 65 66 62 60 58 60 62 60 59 57 58 59 63 65 64 63 61 58 55 52 49 49 50 52 50 53 56 56 59 61 61 65 64 63 61 60 64 69
77 69 65 71 73 66 61 60 56 54 52 53 57 57 60 61 59 59 57 57 58 60 58 54 50 48 49 49 50 50 51 52 52 57 58 63 67 67 69 69 67 66 72 67
77 74 77 77 73 72 65 62 60 59 60 62 62 57 57 56 54 54 55 58 60 63 60 58 53 50 48 45 45 49 53 51 52 48 48 56 60 62 64 76 80 73 65 65
87 78 75 66 65 63 62 61 61 60 60 59 57 54 54 56 57 57 58 59 59 59 58 59 55 50 47 46 47 52 55 58 51 51 57 65 72 74 79 65 63 66 70 72
69 64 62 63 65 64 62 61 58 53 51 48 45 44 43 44 44 43 44 48 47 46 50 52 56 55 49 47 43 49 59 53 59 71 83 86 78 61 59 62 65 68 73 79
61 58 56 54 51 49 46 44 41 38 36 34 33 34 33 32 34 35 38 39 43 48 54 62 67 66 55 50 44 53 58 61 72 85 83 60 57 57 62 70 75 78 86 85
48 47 46 44 41 41 40 37 35 35 34 33 32 30 31 31 32 32 33 34 34 42 49 61 63 59 51 48 50 65 67 77 84 71 59 55 58 62 73 83 86 87 87 88
49 47 42 44 43 42 40 39 37 35 33 32 31 30 29 29 30 35 43 46 43 46 56 72 63 59 55 53 70 75 87 82 71 59 55 58 60 66 74 79 83 84 82 79
44 45 45 45 44 47 46 39 34 32 31 33 40 47 48 60 63 61 60 47 40 48 58 64 63 60 75 78 79 90 77 65 59 58 58 60 62 66 69 69 70 69 67 64
45 46 45 45 48 47 41 37 37 42 49 50 59 60 53 60 65 67 63 47 46 50 53 59 75 86 83 82 82 75 59 57 58 58 58 58 61 62 62 61 60 58 55 53
49 49 46 45 46 54 51 53 59 60 62 68 65 50 46 51 58 64 66 63 57 60 74 88 93 92 86 77 68 58 57 58 58 57 56 56 56 55 55 54 53 52 50 50
53 51 46 52 57 56 59 67 70 69 68 61 58 48 46 46 51 56 59 64 71 83 89 89 84 67 63 64 64 60 61 58 58 56 54 53 52 51 50 49 48 47 47 47
50 55 52 56 60 63 72 71 65 65 64 60 53 44 51 52 53 56 58 62 64 66 66 57 60 64 67 68 69 65 62 58 55 52 51 50 49 47 46 44 43 44 45 46
49 51 57 58 59 61 59 57 58 56 54 53 51 50 63 65 64 60 59 60 57 53 52 55 55 56 57 58 60 63 62 56 53 51 49 47 45 44 43 42 42 43 43 45
55 51 52 51 51 52 59 63 65 64 58 57 54 56 63 70 66 58 51 49 49 52 57 60 61 60 61 60 58 56 55 53 51 49 46 45 44 43 42 42 42 43 44 45
58 58 60 59 59 63 64 65 65 66 67 65 63 59 59 63 63 52 50 51 52 53 53 56 56 55 56 56 56 56 54 52 50 47 44 44 43 43 43 43 44 45 46 47
61 58 57 56 56 58 58 59 62 64 67 67 71 75 75 72 71 65 61 57 55 54 50 49 49 52 54 56 56 55 54 52 48 44 43 43 43 44 44 44 45 46 48 49
55 54 54 53 54 55 57 59 61 63 64 67 69 72 74 76 77 74 70 65 61 57 58 55 58 63 59 58 56 56 55 52 46 43 43 43 44 45 45 44 45 46 48 50
55 55 55 55 56 55 57 59 62 66 68 69 71 72 72 73 73 74 76 72 67 64 62 61 66 68 62 59 58 58 56 52 46 42 42 43 43 44 44 44 45 47 49 51